Time,TemperatureF,DewpointF,PressureIn,WindDirection,WindDirectionDegrees,WindSpeedMPH,WindSpeedGustMPH,Humidity,HourlyPrecipIn,Conditions,Clouds,dailyrainin,SoftwareType,DateUTC
2013-03-14 00:10:00,26.6,20.7,30.12,WNW,292,3.7,-999.0,78,-99.99,,,0.00,Acu-Link.com,2013-03-14 04:10:00,
2013-03-14 00:25:00,26.2,20.6,30.13,West,270,5.3,-999.0,79,-99.99,,,0.00,Acu-Link.com,2013-03-14 04:25:00,
2013-03-14 00:40:00,26.1,20.8,30.13,West,270,2.7,-999.0,80,-99.99,,,0.00,Acu-Link.com,2013-03-14 04:40:00,
2013-03-14 01:11:00,25.7,20.4,30.13,WNW,292,7.8,-999.0,80,-99.99,,,0.00,Acu-Link.com,2013-03-14 05:11:00,
2013-03-14 01:26:00,25.7,20.4,30.13,WSW,247,2.7,-999.0,80,-99.99,,,0.00,Acu-Link.com,2013-03-14 05:26:00,
2013-03-14 01:41:00,25.5,20.2,30.13,West,270,2.7,-999.0,80,-99.99,,,0.00,Acu-Link.com,2013-03-14 05:41:00,
2013-03-14 01:57:00,25.3,20.0,30.13,West,270,4.7,-999.0,80,-99.99,,,0.00,Acu-Link.com,2013-03-14 05:57:00,
2013-03-14 02:12:00,25.3,20.0,30.14,WNW,292,4.7,-999.0,80,-99.99,,,0.00,Acu-Link.com,2013-03-14 06:12:00,
2013-03-14 02:27:00,25.3,20.0,30.14,WNW,292,5.3,-999.0,80,-99.99,,,0.00,Acu-Link.com,2013-03-14 06:27:00,
2013-03-14 02:42:00,25.0,20.0,30.13,West,270,4.7,-999.0,81,-99.99,,,0.00,Acu-Link.com,2013-03-14 06:42:00,
2013-03-14 02:57:00,24.8,20.1,30.13,West,270,2.7,-999.0,82,-99.99,,,0.00,Acu-Link.com,2013-03-14 06:57:00,
2013-03-14 03:12:00,24.6,19.9,30.13,WSW,247,2.2,-999.0,82,-99.99,,,0.00,Acu-Link.com,2013-03-14 07:12:00,
2013-03-14 03:27:00,24.6,19.9,30.13,West,270,4.2,-999.0,82,-99.99,,,0.00,Acu-Link.com,2013-03-14 07:27:00,
2013-03-14 03:43:00,24.4,19.7,30.13,WNW,292,3.2,-999.0,82,-99.99,,,0.00,Acu-Link.com,2013-03-14 07:43:00,
2013-03-14 03:58:00,24.4,19.4,30.13,WSW,247,3.2,-999.0,81,-99.99,,,0.00,Acu-Link.com,2013-03-14 07:58:00,
2013-03-14 04:13:00,24.3,19.3,30.13,West,270,3.2,-999.0,81,-99.99,,,0.00,Acu-Link.com,2013-03-14 08:13:00,
2013-03-14 04:28:00,24.1,19.1,30.13,West,270,3.7,-999.0,81,-99.99,,,0.00,Acu-Link.com,2013-03-14 08:28:00,
2013-03-14 04:43:00,23.9,19.2,30.13,WSW,247,3.7,-999.0,82,-99.99,,,0.00,Acu-Link.com,2013-03-14 08:43:00,
2013-03-14 04:58:00,23.9,19.2,30.13,WSW,247,2.7,-999.0,82,-99.99,,,0.00,Acu-Link.com,2013-03-14 08:58:00,
2013-03-14 05:13:00,23.7,19.0,30.13,West,270,2.2,-999.0,82,-99.99,,,0.00,Acu-Link.com,2013-03-14 09:13:00,
2013-03-14 05:28:00,23.5,19.1,30.13,West,270,4.2,-999.0,83,-99.99,,,0.00,Acu-Link.com,2013-03-14 09:28:00,
2013-03-14 05:43:00,23.5,19.1,30.13,West,270,2.2,-999.0,83,-99.99,,,0.00,Acu-Link.com,2013-03-14 09:43:00,
2013-03-14 05:59:00,23.2,19.1,30.13,WSW,247,1.7,-999.0,84,-99.99,,,0.00,Acu-Link.com,2013-03-14 09:59:00,
2013-03-14 06:14:00,23.2,19.1,30.14,WSW,247,2.2,-999.0,84,-99.99,,,0.00,Acu-Link.com,2013-03-14 10:14:00,
2013-03-14 06:29:00,23.0,19.2,30.15,SW,225,2.7,-999.0,85,-99.99,,,0.00,Acu-Link.com,2013-03-14 10:29:00,
2013-03-14 06:45:00,23.0,19.2,30.15,WSW,247,2.7,-999.0,85,-99.99,,,0.00,Acu-Link.com,2013-03-14 10:45:00,
2013-03-14 07:00:00,22.8,19.0,30.15,SW,225,3.2,-999.0,85,-99.99,,,0.00,Acu-Link.com,2013-03-14 11:00:00,
2013-03-14 07:15:00,22.8,19.0,30.15,West,270,2.7,-999.0,85,-99.99,,,0.00,Acu-Link.com,2013-03-14 11:15:00,
2013-03-14 07:30:00,22.8,19.0,30.14,SSW,202,2.7,-999.0,85,-99.99,,,0.00,Acu-Link.com,2013-03-14 11:30:00,
2013-03-14 07:46:00,22.8,19.0,30.15,WSW,247,2.7,-999.0,85,-99.99,,,0.00,Acu-Link.com,2013-03-14 11:46:00,
2013-03-14 08:16:00,23.4,19.3,30.15,SW,225,3.2,-999.0,84,-99.99,,,0.00,Acu-Link.com,2013-03-14 12:16:00,
2013-03-14 08:31:00,23.7,19.3,30.15,SE,135,3.2,-999.0,83,-99.99,,,0.00,Acu-Link.com,2013-03-14 12:31:00,
2013-03-14 08:46:00,24.6,19.6,30.15,WSW,247,4.7,-999.0,81,-99.99,,,0.00,Acu-Link.com,2013-03-14 12:46:00,
2013-03-14 09:01:00,25.7,20.4,30.15,WSW,247,2.7,-999.0,80,-99.99,,,0.00,Acu-Link.com,2013-03-14 13:01:00,
2013-03-14 09:16:00,26.8,20.6,30.14,West,270,5.8,-999.0,77,-99.99,,,0.00,Acu-Link.com,2013-03-14 13:16:00,
2013-03-14 09:32:00,28.2,21.0,30.15,West,270,3.7,-999.0,74,-99.99,,,0.00,Acu-Link.com,2013-03-14 13:32:00,
2013-03-14 09:47:00,28.2,20.7,30.14,West,270,2.2,-999.0,73,-99.99,,,0.00,Acu-Link.com,2013-03-14 13:47:00,
2013-03-14 10:02:00,28.8,20.9,30.14,ESE,112,2.7,-999.0,72,-99.99,,,0.00,Acu-Link.com,2013-03-14 14:02:00,
2013-03-14 10:17:00,29.8,20.9,30.14,WNW,292,1.7,-999.0,69,-99.99,,,0.00,Acu-Link.com,2013-03-14 14:17:00,
2013-03-14 10:33:00,30.2,19.9,30.15,WSW,247,2.7,-999.0,65,-99.99,,,0.00,Acu-Link.com,2013-03-14 14:33:00,
2013-03-14 10:48:00,31.5,19.6,30.15,WNW,292,2.2,-999.0,61,-99.99,,,0.00,Acu-Link.com,2013-03-14 14:48:00,
2013-03-14 11:04:00,32.4,19.3,30.15,West,270,4.2,-999.0,58,-99.99,,,0.00,Acu-Link.com,2013-03-14 15:04:00,
2013-03-14 11:19:00,33.3,20.5,30.15,NW,315,5.3,-999.0,59,-99.99,,,0.00,Acu-Link.com,2013-03-14 15:19:00,
2013-03-14 11:34:00,34.0,17.8,30.14,WSW,247,4.7,-999.0,51,-99.99,,,0.00,Acu-Link.com,2013-03-14 15:34:00,
2013-03-14 11:49:00,34.5,18.3,30.14,WSW,247,4.2,-999.0,51,-99.99,,,0.00,Acu-Link.com,2013-03-14 15:49:00,
2013-03-14 12:04:00,35.4,17.2,30.14,West,270,3.7,-999.0,47,-99.99,,,0.00,Acu-Link.com,2013-03-14 16:04:00,
2013-03-14 12:19:00,36.5,19.2,30.13,WNW,292,2.7,-999.0,49,-99.99,,,0.00,Acu-Link.com,2013-03-14 16:19:00,
2013-03-14 12:34:00,36.7,19.4,30.13,West,270,2.7,-999.0,49,-99.99,,,0.00,Acu-Link.com,2013-03-14 16:34:00,
2013-03-14 12:49:00,39.0,20.0,30.13,WSW,247,2.7,-999.0,46,-99.99,,,0.00,Acu-Link.com,2013-03-14 16:49:00,
2013-03-14 13:05:00,37.6,17.7,30.12,SSW,202,3.7,-999.0,44,-99.99,,,0.00,Acu-Link.com,2013-03-14 17:05:00,
2013-03-14 13:20:00,37.9,17.4,30.11,SW,225,3.7,-999.0,43,-99.99,,,0.00,Acu-Link.com,2013-03-14 17:20:00,
2013-03-14 13:35:00,38.8,19.3,30.11,West,270,5.3,-999.0,45,-99.99,,,0.00,Acu-Link.com,2013-03-14 17:35:00,
2013-03-14 13:50:00,39.4,18.2,30.10,West,270,6.8,-999.0,42,-99.99,,,0.00,Acu-Link.com,2013-03-14 17:50:00,
2013-03-14 14:05:00,40.1,18.3,30.09,West,270,3.7,-999.0,41,-99.99,,,0.00,Acu-Link.com,2013-03-14 18:05:00,
2013-03-14 14:20:00,41.4,18.3,30.08,SW,225,5.3,-999.0,39,-99.99,,,0.00,Acu-Link.com,2013-03-14 18:20:00,
2013-03-14 14:36:00,40.5,19.8,30.07,SSW,202,3.7,-999.0,43,-99.99,,,0.00,Acu-Link.com,2013-03-14 18:36:00,
2013-03-14 14:51:00,42.1,20.7,30.07,WNW,292,2.2,-999.0,42,-99.99,,,0.00,Acu-Link.com,2013-03-14 18:51:00,
2013-03-14 15:06:00,42.1,18.3,30.07,SSW,202,5.8,-999.0,38,-99.99,,,0.00,Acu-Link.com,2013-03-14 19:06:00,
2013-03-14 15:22:00,43.9,22.9,30.06,SSW,202,3.2,-999.0,43,-99.99,,,0.00,Acu-Link.com,2013-03-14 19:22:00,
2013-03-14 15:37:00,43.3,19.4,30.05,WSW,247,8.9,-999.0,38,-99.99,,,0.00,Acu-Link.com,2013-03-14 19:37:00,
2013-03-14 15:52:00,43.7,21.0,30.03,South,180,3.7,-999.0,40,-99.99,,,0.00,Acu-Link.com,2013-03-14 19:52:00,
2013-03-14 16:07:00,43.3,19.4,30.03,WSW,247,4.7,-999.0,38,-99.99,,,0.00,Acu-Link.com,2013-03-14 20:07:00,
2013-03-14 16:22:00,42.4,19.2,30.03,WSW,247,6.3,-999.0,39,-99.99,,,0.00,Acu-Link.com,2013-03-14 20:22:00,
2013-03-14 16:37:00,42.4,18.6,30.02,WSW,247,5.8,-999.0,38,-99.99,,,0.00,Acu-Link.com,2013-03-14 20:37:00,
2013-03-14 16:52:00,44.1,18.9,30.02,West,270,4.7,-999.0,36,-99.99,,,0.00,Acu-Link.com,2013-03-14 20:52:00,
2013-03-14 17:08:00,43.2,18.7,30.01,SW,225,4.7,-999.0,37,-99.99,,,0.00,Acu-Link.com,2013-03-14 21:08:00,
2013-03-14 17:38:00,44.4,19.1,30.01,SW,225,3.2,-999.0,36,-99.99,,,0.00,Acu-Link.com,2013-03-14 21:38:00,
2013-03-14 17:53:00,44.2,19.0,30.01,WNW,292,5.3,-999.0,36,-99.99,,,0.00,Acu-Link.com,2013-03-14 21:53:00,
2013-03-14 18:08:00,44.8,20.1,30.00,WSW,247,4.7,-999.0,37,-99.99,,,0.00,Acu-Link.com,2013-03-14 22:08:00,
2013-03-14 18:23:00,44.8,19.5,30.00,SW,225,3.7,-999.0,36,-99.99,,,0.00,Acu-Link.com,2013-03-14 22:23:00,
2013-03-14 18:39:00,44.6,18.7,30.00,WSW,247,3.7,-999.0,35,-99.99,,,0.00,Acu-Link.com,2013-03-14 22:39:00,
2013-03-14 18:54:00,43.2,19.3,30.00,WSW,247,3.2,-999.0,38,-99.99,,,0.00,Acu-Link.com,2013-03-14 22:54:00,
2013-03-14 19:09:00,42.1,19.0,30.00,SSW,202,3.2,-999.0,39,-99.99,,,0.00,Acu-Link.com,2013-03-14 23:09:00,
2013-03-14 19:24:00,42.1,19.0,30.00,SW,225,3.2,-999.0,39,-99.99,,,0.00,Acu-Link.com,2013-03-14 23:24:00,
2013-03-14 19:39:00,41.9,19.9,30.00,SW,225,2.7,-999.0,41,-99.99,,,0.00,Acu-Link.com,2013-03-14 23:39:00,
2013-03-14 19:54:00,41.5,20.7,30.00,SW,225,3.2,-999.0,43,-99.99,,,0.00,Acu-Link.com,2013-03-14 23:54:00,
2013-03-14 20:10:00,41.4,21.1,30.00,WNW,292,3.7,-999.0,44,-99.99,,,0.00,Acu-Link.com,2013-03-15 00:10:00,
2013-03-14 20:25:00,41.2,21.5,30.00,South,180,2.2,-999.0,45,-99.99,,,0.00,Acu-Link.com,2013-03-15 00:25:00,
2013-03-14 20:40:00,41.0,21.3,29.99,West,270,5.8,-999.0,45,-99.99,,,0.00,Acu-Link.com,2013-03-15 00:40:00,
2013-03-14 20:55:00,41.2,21.5,29.99,SW,225,3.7,-999.0,45,-99.99,,,0.00,Acu-Link.com,2013-03-15 00:55:00,
2013-03-14 21:26:00,40.8,22.6,29.99,SW,225,5.3,-999.0,48,-99.99,,,0.00,Acu-Link.com,2013-03-15 01:26:00,
2013-03-14 21:41:00,39.7,25.3,30.00,West,270,8.3,-999.0,56,-99.99,,,0.00,Acu-Link.com,2013-03-15 01:41:00,
2013-03-14 21:56:00,39.4,26.7,30.01,WSW,247,5.3,-999.0,60,-99.99,,,0.00,Acu-Link.com,2013-03-15 01:56:00,
2013-03-14 22:11:00,38.8,27.7,30.00,West,270,7.8,-999.0,64,-99.99,,,0.00,Acu-Link.com,2013-03-15 02:11:00,
2013-03-14 22:27:00,38.5,28.5,30.00,SW,225,3.2,-999.0,67,-99.99,,,0.00,Acu-Link.com,2013-03-15 02:27:00,
2013-03-14 22:57:00,38.3,28.3,30.01,West,270,3.7,-999.0,67,-99.99,,,0.00,Acu-Link.com,2013-03-15 02:57:00,
2013-03-14 23:13:00,37.9,28.3,30.02,WNW,292,4.7,-999.0,68,-99.99,,,0.00,Acu-Link.com,2013-03-15 03:13:00,
2013-03-14 23:28:00,37.6,28.4,30.01,SW,225,4.2,-999.0,69,-99.99,,,0.00,Acu-Link.com,2013-03-15 03:28:00,
2013-03-14 23:43:00,37.2,28.0,30.00,WSW,247,2.7,-999.0,69,-99.99,,,0.00,Acu-Link.com,2013-03-15 03:43:00,
2013-03-14 23:59:00,36.3,27.8,29.99,WSW,247,2.7,-999.0,71,-99.99,,,0.00,Acu-Link.com,2013-03-15 03:59:00,